• In Belarus
  • List of Countries
  • For 7 days
  • Water Temperature
  • Satellite Maps
  • Weather Map
  • Weather Widgets
  • user-avatar
    Login

    Hourly Weather Trujillo

    Today, 15 November, Thursday

    Time Temperature Precipitation Wind Pressure Humidity
    00:00 +26°C° 0 mm 6 mps 762 mmHg 98%
    01:00 +26°C° 2.8 mm 6 mps 762 mmHg 98%
    02:00 +24°C° 2.8 mm 6 mps 761 mmHg 98%
    03:00 +24°C° 2.8 mm 6 mps 761 mmHg 99%
    04:00 +24°C° 3.1 mm 6 mps 761 mmHg 99%
    05:00 +24°C° 3.1 mm 6 mps 761 mmHg 98%
    06:00 +24°C° 3.1 mm 6 mps 762 mmHg 98%
    07:00 +24°C° 2.7 mm 6 mps 762 mmHg 98%
    08:00 +26°C° 2.7 mm 5 mps 762 mmHg 98%
    09:00 +26°C° 2.7 mm 5 mps 762 mmHg 98%
    10:00 +26°C° 2.7 mm 5 mps 762 mmHg 98%
    11:00 +26°C° 2.7 mm 5 mps 762 mmHg 98%
    12:00 +26°C° 2.7 mm 5 mps 761 mmHg 97%
    13:00 +26°C° 2.7 mm 6 mps 761 mmHg 98%
    14:00 +26°C° 2.7 mm 6 mps 761 mmHg 98%
    15:00 +26°C° 2.7 mm 6 mps 760 mmHg 98%
    16:00 +24°C° 2.8 mm 6 mps 761 mmHg 98%
    17:00 +24°C° 2.8 mm 6 mps 761 mmHg 98%
    18:00 +24°C° 2.8 mm 7 mps 761 mmHg 99%
    19:00 +24°C° 3 mm 6 mps 761 mmHg 99%
    20:00 +24°C° 3 mm 6 mps 762 mmHg 99%
    21:00 +24°C° 3 mm 6 mps 763 mmHg 99%
    22:00 +24°C° 2.8 mm 6 mps 762 mmHg 99%
    23:00 +26°C° 2.8 mm 6 mps 762 mmHg 99%

    Tomorrow, 16 November, Friday

    Time Temperature Precipitation Wind Pressure Humidity
    00:00 +26°C° 2.8 mm 6 mps 762 mmHg 99%
    01:00 +26°C° 2.6 mm 6 mps 761 mmHg 99%
    02:00 +26°C° 2.6 mm 6 mps 761 mmHg 99%
    03:00 +26°C° 2.6 mm 6 mps 761 mmHg 99%
    04:00 +26°C° 2.4 mm 6 mps 761 mmHg 99%
    05:00 +26°C° 2.4 mm 6 mps 761 mmHg 99%
    06:00 +26°C° 2.4 mm 6 mps 761 mmHg 99%
    07:00 +26°C° 2.5 mm 6 mps 762 mmHg 99%
    08:00 +26°C° 2.5 mm 6 mps 762 mmHg 99%
    09:00 +26°C° 2.5 mm 5 mps 762 mmHg 99%
    10:00 +26°C° 2.7 mm 5 mps 762 mmHg 99%
    11:00 +26°C° 2.7 mm 5 mps 762 mmHg 98%
    12:00 +26°C° 2.7 mm 5 mps 761 mmHg 98%
    13:00 +26°C° 2.6 mm 5 mps 761 mmHg 98%
    14:00 +26°C° 2.6 mm 5 mps 760 mmHg 98%
    15:00 +25°C° 2.6 mm 5 mps 760 mmHg 98%
    16:00 +25°C° 2 mm 5 mps 760 mmHg 98%
    17:00 +25°C° 2 mm 4 mps 760 mmHg 98%
    18:00 +23°C° 2 mm 4 mps 760 mmHg 98%
    19:00 +23°C° 1.2 mm 4 mps 761 mmHg 98%
    20:00 +23°C° 1.2 mm 4 mps 761 mmHg 98%
    21:00 +23°C° 1.2 mm 4 mps 762 mmHg 98%
    22:00 +23°C° 0.6 mm 4 mps 762 mmHg 98%
    23:00 +22°C° 0.6 mm 4 mps 762 mmHg 98%

    Day after tomorrow, 17 November, Saturday

    Time Temperature Precipitation Wind Pressure Humidity
    00:00 +22°C° 0.6 mm 4 mps 761 mmHg 98%
    01:00 +22°C° 0.4 mm 4 mps 761 mmHg 98%
    02:00 +22°C° 0.4 mm 4 mps 761 mmHg 98%
    03:00 +22°C° 0.4 mm 4 mps 760 mmHg 98%
    04:00 +22°C° 0.3 mm 4 mps 761 mmHg 98%
    05:00 +23°C° 0.3 mm 4 mps 761 mmHg 98%
    06:00 +23°C° 0.3 mm 4 mps 761 mmHg 98%
    07:00 +25°C° 0.2 mm 4 mps 762 mmHg 93%
    08:00 +27°C° 0.2 mm 4 mps 762 mmHg 89%
    09:00 +28°C° 0.2 mm 4 mps 762 mmHg 84%
    10:00 +29°C° 0.2 mm 4 mps 762 mmHg 81%
    11:00 +30°C° 0.2 mm 4 mps 761 mmHg 77%
    12:00 +32°C° 0.2 mm 4 mps 761 mmHg 73%
    13:00 +32°C° 0.3 mm 5 mps 760 mmHg 77%
    14:00 +30°C° 0.3 mm 5 mps 760 mmHg 80%
    15:00 +30°C° 0.3 mm 5 mps 759 mmHg 84%
    16:00 +29°C° 0.3 mm 5 mps 760 mmHg 88%
    17:00 +28°C° 0.3 mm 4 mps 760 mmHg 93%
    18:00 +26°C° 0.3 mm 4 mps 760 mmHg 98%
    19:00 +26°C° 0.5 mm 4 mps 761 mmHg 98%
    20:00 +26°C° 0.5 mm 3 mps 761 mmHg 98%
    21:00 +26°C° 0.5 mm 3 mps 762 mmHg 98%
    22:00 +26°C° 0.6 mm 3 mps 762 mmHg 98%
    23:00 +26°C° 0.6 mm 3 mps 761 mmHg 98%

    18 November, Sunday

    Time Temperature Precipitation Wind Pressure Humidity
    00:00 +26°C° 0.6 mm 2 mps 761 mmHg 98%
    01:00 +25°C° 0.3 mm 2 mps 761 mmHg 98%
    02:00 +25°C° 0.3 mm 2 mps 760 mmHg 99%
    03:00 +25°C° 0.3 mm 2 mps 760 mmHg 99%
    04:00 +25°C° 0.2 mm 2 mps 760 mmHg 99%
    05:00 +25°C° 0.2 mm 3 mps 761 mmHg 99%
    06:00 +25°C° 0.2 mm 3 mps 761 mmHg 99%
    07:00 +26°C° 0.1 mm 3 mps 761 mmHg 93%
    08:00 +28°C° 0.1 mm 3 mps 762 mmHg 87%
    09:00 +30°C° 0.1 mm 3 mps 762 mmHg 82%
    10:00 +30°C° 0.1 mm 3 mps 762 mmHg 79%
    11:00 +31°C° 0.1 mm 3 mps 761 mmHg 76%
    12:00 +33°C° 0.1 mm 3 mps 761 mmHg 73%
    13:00 +31°C° 0.1 mm 3 mps 760 mmHg 76%
    14:00 +31°C° 0.1 mm 3 mps 759 mmHg 80%
    15:00 +30°C° 0.1 mm 3 mps 759 mmHg 84%
    16:00 +29°C° 0.2 mm 2 mps 759 mmHg 89%
    17:00 +28°C° 0.2 mm 2 mps 760 mmHg 94%
    18:00 +27°C° 0.2 mm 1 mps 760 mmHg 99%
    19:00 +27°C° 0.3 mm 1 mps 761 mmHg 99%
    20:00 +26°C° 0.3 mm 1 mps 761 mmHg 99%
    21:00 +26°C° 0.3 mm 1 mps 761 mmHg 99%
    22:00 +26°C° 0.1 mm 1 mps 761 mmHg 99%
    23:00 +26°C° 0.1 mm 1 mps 761 mmHg 99%

    19 November, Monday

    Time Temperature Precipitation Wind Pressure Humidity
    00:00 +25°C° 0.1 mm 1 mps 760 mmHg 99%
    01:00 +25°C° 0.1 mm 1 mps 760 mmHg 99%
    02:00 +25°C° 0.1 mm 1 mps 760 mmHg 99%
    03:00 +25°C° 0.1 mm 1 mps 759 mmHg 99%
    04:00 +25°C° 0.1 mm 1 mps 760 mmHg 99%
    05:00 +25°C° 0.1 mm 2 mps 760 mmHg 99%
    06:00 +25°C° 0.1 mm 2 mps 761 mmHg 99%
    07:00 +27°C° 0 mm 2 mps 761 mmHg 92%
    08:00 +28°C° 0 mm 2 mps 761 mmHg 85%
    09:00 +30°C° 0 mm 2 mps 761 mmHg 78%
    10:00 +31°C° 0 mm 2 mps 761 mmHg 75%
    11:00 +32°C° 0 mm 2 mps 760 mmHg 71%
    12:00 +33°C° 0 mm 3 mps 759 mmHg 67%
    13:00 +33°C° 0.1 mm 3 mps 759 mmHg 72%
    14:00 +31°C° 0.1 mm 3 mps 758 mmHg 77%
    15:00 +30°C° 0.1 mm 3 mps 758 mmHg 81%
    16:00 +29°C° 0.2 mm 2 mps 758 mmHg 87%
    17:00 +28°C° 0.2 mm 2 mps 759 mmHg 93%
    18:00 +27°C° 0.2 mm 1 mps 759 mmHg 99%
    19:00 +27°C° 0.2 mm 1 mps 760 mmHg 99%
    20:00 +26°C° 0.2 mm 1 mps 760 mmHg 99%
    21:00 +26°C° 0.2 mm 2 mps 761 mmHg 99%
    22:00 +26°C° 0.1 mm 2 mps 760 mmHg 99%
    23:00 +25°C° 0.1 mm 2 mps 760 mmHg 99%

    20 November, Tuesday

    Time Temperature Precipitation Wind Pressure Humidity
    00:00 +25°C° 0.1 mm 2 mps 760 mmHg 99%
    01:00 +25°C° 0.1 mm 2 mps 759 mmHg 99%
    02:00 +25°C° 0.1 mm 2 mps 759 mmHg 99%
    03:00 +24°C° 0.1 mm 2 mps 759 mmHg 99%
    04:00 +24°C° 0 mm 2 mps 759 mmHg 99%
    05:00 +24°C° 0 mm 2 mps 760 mmHg 99%
    06:00 +24°C° 0 mm 2 mps 760 mmHg 99%
    07:00 +26°C° 0 mm 2 mps 760 mmHg 91%
    08:00 +29°C° 0 mm 2 mps 760 mmHg 83%
    09:00 +31°C° 0 mm 2 mps 761 mmHg 75%
    10:00 +32°C° 0 mm 2 mps 760 mmHg 68%
    11:00 +34°C° 0 mm 2 mps 759 mmHg 62%
    12:00 +35°C° 0 mm 2 mps 759 mmHg 55%
    13:00 +34°C° 0 mm 3 mps 759 mmHg 62%
    14:00 +33°C° 0 mm 3 mps 758 mmHg 69%
    15:00 +31°C° 0 mm 3 mps 758 mmHg 76%
    16:00 +30°C° 0.3 mm 3 mps 758 mmHg 83%
    17:00 +28°C° 0.3 mm 2 mps 759 mmHg 91%
    18:00 +27°C° 0.3 mm 1 mps 760 mmHg 99%
    19:00 +27°C° 0.3 mm 1 mps 760 mmHg 99%
    20:00 +26°C° 0.3 mm 1 mps 760 mmHg 99%
    21:00 +26°C° 0.3 mm 1 mps 761 mmHg 99%
    22:00 +26°C° 0 mm 1 mps 761 mmHg 99%
    23:00 +26°C° 0 mm 1 mps 761 mmHg 99%
    Show more